Mirador de Bellmunt





Hora UTC 16:10
Temperatura 17.4 ºC
Humitat 75.0 %
Pressió 1016.1 hPa
Pluja 0.0 mm
Velocitat vent 6.4 km/h
Direcció vent S

Dades diàries 2019-09-20



Hora UTC (hivern +1h; estiu +2h)
Temperatura (ºC) Humitat (%) Pressió (hPa) Velocitat vent (km/h) Precipitació (mm)
Hora UTC Aire Humitat Pressió Vel. Dir. Vel. Max Dir. Intent. màx 5 min.
00:05 15.9 71.0 1017.4 6.4 E 6.4 0.0
00:10 15.8 71.0 1017.4 12.9 E 20.9 0.0
00:15 15.8 72.0 1017.5 12.9 E 19.3 0.0
00:20 15.7 73.0 1017.3 12.9 E 20.9 0.0
00:25 15.7 74.0 1017.3 14.5 E 20.9 0.0
00:30 15.7 75.0 1017.3 16.1 E 19.3 0.0
00:35 15.8 75.0 1017.2 16.1 ESE 22.5 0.0
00:40 15.8 76.0 1017.1 17.7 E 22.5 0.0
00:45 15.7 76.0 1017.2 11.3 E 20.9 0.0
00:50 15.7 77.0 1017.1 12.9 ESE 19.3 0.0
00:55 15.6 77.0 1017.1 4.8 ESE 17.7 0.0
01:00 15.6 78.0 1017.1 3.2 S 14.5 0.0
01:05 15.5 78.0 1017.0 11.3 ESE 19.3 0.0
01:10 15.4 78.0 1017.0 12.9 E 19.3 0.0
01:15 15.3 79.0 1016.9 16.1 E 20.9 0.0
01:20 15.3 79.0 1016.9 6.4 E 22.5 0.0
01:25 15.3 80.0 1017.1 3.2 ESE 22.5 0.0
01:30 15.3 80.0 1017.0 12.9 E 19.3 0.0
01:35 15.3 80.0 1017.0 16.1 E 19.3 0.0
01:40 15.3 80.0 1017.0 16.1 E 20.9 0.0
01:45 15.4 80.0 1017.1 11.3 E 20.9 0.0
01:50 15.4 79.0 1017.0 16.1 E 19.3 0.0
01:55 15.4 80.0 1017.0 9.7 E 19.3 0.0
02:00 15.3 80.0 1017.0 8.0 ENE 19.3 0.0
02:05 15.3 80.0 1017.0 14.5 ESE 19.3 0.0
02:10 15.2 80.0 1016.9 12.9 E 17.7 0.0
02:15 15.1 80.0 1016.8 14.5 E 17.7 0.0
02:20 15.1 81.0 1016.8 14.5 E 17.7 0.0
02:25 15.1 80.0 1016.8 12.9 ESE 17.7 0.0
02:30 15.2 80.0 1016.9 11.3 E 16.1 0.0
02:35 15.1 80.0 1016.8 11.3 E 16.1 0.0
02:40 15.0 80.0 1016.9 14.5 E 17.7 0.0
02:45 14.9 81.0 1016.8 8.0 ENE 19.3 0.0
02:50 14.8 81.0 1016.8 14.5 E 17.7 0.0
02:55 14.8 81.0 1016.7 19.3 E 22.5 0.0
03:00 14.7 82.0 1016.6 19.3 E 22.5 0.0
03:05 14.6 82.0 1016.7 16.1 E 22.5 0.0
03:10 14.7 82.0 1016.6 16.1 E 19.3 0.0
03:15 14.7 82.0 1016.6 12.9 E 19.3 0.0
03:20 14.8 81.0 1016.5 11.3 E 19.3 0.0
03:25 14.8 81.0 1016.4 12.9 ESE 20.9 0.0
03:30 14.9 80.0 1016.4 12.9 E 20.9 0.0
03:35 15.0 80.0 1016.4 17.7 SE 17.7 0.0
03:40 15.2 79.0 1016.5 9.7 ESE 19.3 0.0
03:45 15.1 80.0 1016.5 14.5 SE 19.3 0.0
03:50 15.2 79.0 1016.6 3.2 ESE 17.7 0.0
03:55 15.1 79.0 1016.6 11.3 ESE 17.7 0.0
04:00 14.9 80.0 1016.5 12.9 SSE 16.1 0.0
04:05 15.0 80.0 1016.5 19.3 SSE 24.1 0.0
04:10 14.9 80.0 1016.5 19.3 SSE 25.7 0.0
04:15 14.9 80.0 1016.5 17.7 SSE 25.7 0.0
04:20 14.9 80.0 1016.5 19.3 SSE 25.7 0.0
04:25 14.8 81.0 1016.5 11.3 SE 24.1 0.0
04:30 14.8 81.0 1016.5 3.2 SE 19.3 0.0
04:35 14.9 81.0 1016.4 11.3 SE 14.5 0.0
04:40 14.9 81.0 1016.4 16.1 SSE 19.3 0.0
04:45 14.9 81.0 1016.5 14.5 SSE 19.3 0.0
04:50 14.9 81.0 1016.6 8.0 SE 19.3 0.0
04:55 14.9 80.0 1016.6 14.5 SSE 19.3 0.0
05:00 14.9 81.0 1016.6 17.7 S 19.3 0.0
05:05 14.9 81.0 1016.6 12.9 S 17.7 0.0
05:10 14.8 81.0 1016.6 14.5 S 17.7 0.0
05:15 14.8 81.0 1016.7 12.9 SSW 16.1 0.0
05:20 14.7 81.0 1016.7 8.0 SSW 14.5 0.0
05:25 14.6 82.0 1016.8 9.7 S 12.9 0.0
05:30 14.7 82.0 1016.7 8.0 S 11.3 0.0
05:35 14.7 82.0 1016.8 8.0 S 11.3 0.0
05:40 14.7 82.0 1016.8 0.0 S 12.9 0.0
05:45 14.5 82.0 1016.8 0.0 S 12.9 0.0
05:50 14.2 83.0 1016.8 4.8 S 8.0 0.0
05:55 14.1 83.0 1016.7 14.5 SSE 17.7 0.0
06:00 14.2 82.0 1016.8 22.5 S 27.4 0.0
06:05 14.3 80.0 1016.8 30.6 SSE 30.6 0.0
06:10 14.3 79.0 1016.8 20.9 SSE 29.0 0.0
06:15 14.4 79.0 1016.9 20.9 SSE 27.4 0.0
06:20 14.4 77.0 1016.9 22.5 SSE 24.1 0.0
06:25 14.4 77.0 1017.1 11.3 SSW 24.1 0.0
06:30 14.5 76.0 1017.1 4.8 SSW 17.7 0.0
06:35 14.5 75.0 1017.2 14.5 SSW 16.1 0.0
06:40 14.5 75.0 1017.2 14.5 S 16.1 0.0
06:45 14.6 74.0 1017.2 12.9 S 16.1 0.0
06:50 14.6 74.0 1017.3 16.1 S 16.1 0.0
06:55 14.7 74.0 1017.3 11.3 S 16.1 0.0
07:00 14.7 74.0 1017.4 6.4 S 16.1 0.0
07:05 14.7 74.0 1017.4 11.3 S 16.1 0.0
07:10 14.8 74.0 1017.4 8.0 S 16.1 0.0
07:15 14.7 74.0 1017.5 6.4 SSE 14.5 0.0
07:20 14.8 74.0 1017.5 0.0 SSW 12.9 0.0
07:25 15.0 76.0 1017.7 0.0 SSW 11.3 0.0
07:30 15.0 75.0 1017.7 3.2 SSW 11.3 0.0
07:35 15.0 75.0 1017.8 4.8 SSW 11.3 0.0
07:40 15.0 74.0 1017.9 6.4 SSW 12.9 0.0
07:45 15.2 76.0 1017.9 0.0 S 12.9 0.0
07:50 15.3 74.0 1018.0 1.6 SSW 11.3 0.0
07:55 15.2 75.0 1018.1 0.0 SSW 4.8 0.0
08:00 15.3 77.0 1018.2 0.0 S 4.8 0.0
08:05 15.4 74.0 1018.2 1.6 SSE 12.9 0.0
08:10 15.3 73.0 1018.2 0.0 S 12.9 0.0
08:15 15.5 75.0 1018.2 3.2 S 11.3 0.0
08:20 15.7 75.0 1018.3 1.6 SSW 9.7 0.0
08:25 15.7 76.0 1018.3 0.0 S 6.4 0.0
08:30 16.2 75.0 1018.3 1.6 S 3.2 0.0
08:35 16.4 73.0 1018.2 1.6 S 6.4 0.0
08:40 16.4 73.0 1018.2 3.2 SW 6.4 0.0
08:45 15.9 73.0 1018.3 1.6 SW 6.4 0.0
08:50 15.8 71.0 1018.3 4.8 SSW 8.0 0.0
08:55 15.6 73.0 1018.3 0.0 SW 8.0 0.0
09:00 16.1 74.0 1018.3 0.0 SSE 8.0 0.0
09:05 16.4 74.0 1018.3 3.2 WSW 4.8 0.0
09:10 16.6 74.0 1018.4 0.0 WSW 6.4 0.0
09:15 16.7 73.0 1018.3 0.0 S 11.3 0.0
09:20 16.7 74.0 1018.3 1.6 W 11.3 0.0
09:25 16.7 75.0 1018.2 1.6 SW 11.3 0.0
09:30 16.8 75.0 1018.2 0.0 W 11.3 0.0
09:35 17.2 76.0 1018.3 0.0 W 8.0 0.0
09:40 17.1 75.0 1018.3 4.8 SW 8.0 0.0
09:45 16.8 75.0 1018.3 1.6 NNW 9.7 0.0
09:50 16.9 75.0 1018.3 3.2 SSW 9.7 0.0
09:55 17.1 76.0 1018.3 0.0 WSW 8.0 0.0
10:00 17.0 72.0 1018.3 4.8 SW 9.7 0.0
10:05 16.9 75.0 1018.3 3.2 S 9.7 0.0
10:10 17.1 74.0 1018.2 0.0 SW 8.0 0.0
10:15 17.4 73.0 1018.1 4.8 S 6.4 0.0
10:20 17.5 70.0 1018.1 0.0 SW 11.3 0.0
10:25 17.2 74.0 1018.1 0.0 WSW 16.1 0.0
10:30 17.1 70.0 1018.1 0.0 SSE 16.1 0.0
10:35 16.9 71.0 1018.1 0.0 SE 9.7 0.0
10:40 17.3 74.0 1018.1 1.6 SSW 17.7 0.0
10:45 17.3 73.0 1018.1 0.0 S 17.7 0.0
10:50 16.9 74.0 1017.9 1.6 SSE 20.9 0.0
10:55 17.1 75.0 1017.9 0.0 SSW 20.9 0.0
11:00 16.9 75.0 1017.9 1.6 SSW 14.5 0.0
11:05 17.0 75.0 1017.9 1.6 W 16.1 0.0
11:10 16.8 75.0 1017.9 6.4 SSW 14.5 0.0
11:15 16.8 76.0 1017.8 0.0 SSW 16.1 0.0
11:20 17.1 74.0 1017.8 1.6 S 19.3 0.0
11:25 17.1 76.0 1017.8 3.2 SSW 19.3 0.0
11:30 17.1 75.0 1017.8 0.0 ENE 16.1 0.0
11:35 17.2 76.0 1017.7 6.4 SW 19.3 0.0
11:40 16.9 74.0 1017.7 1.6 SSE 19.3 0.0
11:45 17.2 75.0 1017.6 12.9 S 22.5 0.0
11:50 17.2 76.0 1017.6 9.7 S 22.5 0.0
11:55 17.1 74.0 1017.5 3.2 S 19.3 0.0
12:00 16.8 74.0 1017.5 1.6 SSW 16.1 0.0
12:05 17.1 75.0 1017.4 3.2 SW 14.5 0.0
12:10 17.7 71.0 1017.4 1.6 SSW 12.9 0.0
12:15 17.8 72.0 1017.4 1.6 WSW 11.3 0.0
12:20 17.5 72.0 1017.4 16.1 S 22.5 0.0
12:25 17.5 71.0 1017.3 3.2 S 20.9 0.0
12:30 17.9 72.0 1017.3 0.0 SW 16.1 0.0
12:35 17.5 71.0 1017.2 0.0 SSW 22.5 0.0
12:40 17.6 72.0 1017.1 1.6 SW 22.5 0.0
12:45 18.4 69.0 1017.3 11.3 S 19.3 0.0
12:50 18.4 68.0 1017.2 11.3 S 19.3 0.0
12:55 17.6 71.0 1017.2 8.0 SSW 19.3 0.0
13:00 17.6 72.0 1017.1 9.7 SSW 17.7 0.0
13:05 17.8 69.0 1017.2 3.2 SSW 14.5 0.0
13:10 18.0 71.0 1017.1 11.3 SSW 20.9 0.0
13:15 17.8 71.0 1017.0 3.2 S 22.5 0.0
13:20 17.7 71.0 1017.0 1.6 WSW 20.9 0.0
13:25 18.3 70.0 1017.0 1.6 NNW 20.9 0.0
13:30 18.6 69.0 1016.9 0.0 SW 16.1 0.0
13:35 18.8 68.0 1016.8 0.0 S 16.1 0.0
13:40 18.7 68.0 1016.6 11.3 S 16.1 0.0
13:45 18.2 70.0 1016.8 1.6 SSW 17.7 0.0
13:50 18.2 69.0 1016.7 9.7 S 17.7 0.0
13:55 18.2 70.0 1016.8 9.7 SSW 14.5 0.0
14:00 18.7 67.0 1016.8 1.6 S 14.5 0.0
14:05 18.5 68.0 1016.7 8.0 SSW 16.1 0.0
14:10 18.2 69.0 1016.7 1.6 WSW 16.1 0.0
14:15 18.2 69.0 1016.8 0.0 S 16.1 0.0
14:20 18.3 68.0 1016.7 0.0 S 14.5 0.0
14:25 18.5 70.0 1016.7 0.0 SE 14.5 0.0
14:30 18.4 69.0 1016.6 1.6 SSW 22.5 0.0
14:35 18.8 69.0 1016.5 9.7 S 22.5 0.0
14:40 18.8 70.0 1016.4 0.0 S 20.9 0.0
14:45 18.3 72.0 1016.2 1.6 WSW 20.9 0.0
14:50 17.8 72.0 1016.2 8.0 SSE 24.1 0.0
14:55 17.8 74.0 1016.1 0.0 SSE 24.1 0.0
15:00 17.8 74.0 1016.0 0.0 SW 16.1 0.0
15:05 17.9 74.0 1016.0 4.8 SSW 19.3 0.0
15:10 18.1 74.0 1015.8 3.2 SSE 19.3 0.0
15:15 18.2 73.0 1016.0 1.6 SSE 24.1 0.0
15:20 17.9 74.0 1016.0 17.7 S 24.1 0.0
15:25 17.7 74.0 1016.0 14.5 SE 24.1 0.0
15:30 17.8 74.0 1016.0 3.2 SSW 19.3 0.0
15:35 17.8 73.0 1015.9 1.6 SSW 19.3 0.0
15:40 17.5 74.0 1016.0 0.0 SW 16.1 0.0
15:45 17.4 74.0 1016.1 1.6 SSW 14.5 0.0
15:50 17.4 74.0 1016.0 3.2 SSE 14.5 0.0
15:55 17.7 74.0 1016.0 8.0 SSW 16.1 0.0
16:00 17.7 74.0 1016.0 8.0 S 17.7 0.0
16:05 17.6 75.0 1016.1 12.9 SSE 17.7 0.0
16:10 17.4 75.0 1016.1 6.4 S 17.7 0.0
Màxima 18.9 83.0 1018.4 30.6 SSE 30.6 0.0
Mínima 14.1 67.0 1015.8
Total 0.0